When you browse on this site, cookies collect data to enhance your experience and personalize the content and advertising you see.
Visit our Privacy Policy to learn more. By continuing to use the site, you agree to this use of cookies and data.
  • En España
  • Lista de países
  • Para 7 días
  • Temperatura del agua
  • El tiempo en el mapa
  • Informadores
  • user-avatar
    Iniciar sesión

    Tiempo cada hora Santa Fe

    Hoy, 23 Octubre, Miércoles

    Tiempo Temperatura Precipitaciones Viento Presión Humedad
    00:00 +13°C° 0 mm 1 mps 761 mmHg 85%
    01:00 +13°C° 0 mm 1 mps 761 mmHg 85%
    02:00 +12°C° 0 mm 1 mps 761 mmHg 86%
    03:00 +11°C° 0 mm 0 mps 761 mmHg 86%
    04:00 +11°C° 0 mm 0 mps 761 mmHg 87%
    05:00 +11°C° 0 mm 0 mps 761 mmHg 87%
    06:00 +13°C° 0 mm 0 mps 761 mmHg 80%
    07:00 +15°C° 0 mm 0 mps 762 mmHg 73%
    08:00 +17°C° 0 mm 0 mps 762 mmHg 66%
    09:00 +21°C° 0 mm 1 mps 762 mmHg 62%
    10:00 +23°C° 0 mm 1 mps 762 mmHg 58%
    11:00 +24°C° 0 mm 2 mps 761 mmHg 54%
    12:00 +25°C° 0 mm 2 mps 761 mmHg 53%
    13:00 +25°C° 0 mm 2 mps 760 mmHg 51%
    14:00 +26°C° 0 mm 2 mps 759 mmHg 49%
    15:00 +26°C° 0 mm 1 mps 759 mmHg 50%
    16:00 +26°C° 0 mm 1 mps 759 mmHg 52%
    17:00 +26°C° 0 mm 1 mps 758 mmHg 53%
    18:00 +24°C° 0 mm 1 mps 758 mmHg 57%
    19:00 +21°C° 0 mm 2 mps 759 mmHg 62%
    20:00 +19°C° 0 mm 2 mps 759 mmHg 66%
    21:00 +18°C° 0 mm 2 mps 759 mmHg 69%
    22:00 +18°C° 0 mm 2 mps 759 mmHg 72%
    23:00 +17°C° 0 mm 2 mps 759 mmHg 75%

    Mañana, 24 Octubre, Jueves

    Tiempo Temperatura Precipitaciones Viento Presión Humedad
    00:00 +17°C° 0 mm 2 mps 759 mmHg 77%
    01:00 +16°C° 0 mm 2 mps 759 mmHg 78%
    02:00 +16°C° 0 mm 1 mps 758 mmHg 80%
    03:00 +15°C° 0 mm 2 mps 758 mmHg 81%
    04:00 +15°C° 0 mm 2 mps 759 mmHg 81%
    05:00 +15°C° 0 mm 2 mps 759 mmHg 82%
    06:00 +17°C° 0 mm 2 mps 759 mmHg 76%
    07:00 +19°C° 0 mm 2 mps 759 mmHg 71%
    08:00 +21°C° 0 mm 3 mps 759 mmHg 65%
    09:00 +24°C° 0 mm 3 mps 759 mmHg 59%
    10:00 +26°C° 0 mm 3 mps 759 mmHg 54%
    11:00 +28°C° 0 mm 3 mps 759 mmHg 48%
    12:00 +29°C° 0 mm 3 mps 758 mmHg 45%
    13:00 +29°C° 0 mm 2 mps 758 mmHg 43%
    14:00 +30°C° 0 mm 2 mps 757 mmHg 40%
    15:00 +30°C° 0 mm 2 mps 757 mmHg 44%
    16:00 +29°C° 0 mm 2 mps 756 mmHg 47%
    17:00 +29°C° 0 mm 3 mps 756 mmHg 50%
    18:00 +27°C° 0 mm 3 mps 756 mmHg 55%
    19:00 +25°C° 0 mm 4 mps 756 mmHg 59%
    20:00 +22°C° 0 mm 4 mps 757 mmHg 63%
    21:00 +22°C° 0.7 mm 4 mps 758 mmHg 71%
    22:00 +21°C° 0.7 mm 4 mps 758 mmHg 78%
    23:00 +20°C° 0.7 mm 3 mps 759 mmHg 85%

    Pasado mañana, 25 Octubre, Viernes

    Tiempo Temperatura Precipitaciones Viento Presión Humedad
    00:00 +19°C° 3.9 mm 4 mps 759 mmHg 86%
    01:00 +19°C° 3.9 mm 5 mps 759 mmHg 88%
    02:00 +17°C° 3.9 mm 6 mps 759 mmHg 90%
    03:00 +17°C° 0 mm 5 mps 759 mmHg 89%
    04:00 +18°C° 0 mm 3 mps 759 mmHg 89%
    05:00 +17°C° 0 mm 2 mps 759 mmHg 89%
    06:00 +19°C° 0 mm 2 mps 759 mmHg 82%
    07:00 +21°C° 0 mm 2 mps 760 mmHg 76%
    08:00 +23°C° 0 mm 2 mps 760 mmHg 69%
    09:00 +25°C° 0 mm 2 mps 760 mmHg 61%
    10:00 +27°C° 0 mm 2 mps 760 mmHg 54%
    11:00 +29°C° 0 mm 2 mps 760 mmHg 46%
    12:00 +30°C° 0 mm 2 mps 759 mmHg 44%
    13:00 +31°C° 0 mm 2 mps 759 mmHg 42%
    14:00 +31°C° 0 mm 2 mps 758 mmHg 40%
    15:00 +31°C° 0 mm 3 mps 757 mmHg 44%
    16:00 +30°C° 0 mm 3 mps 757 mmHg 48%
    17:00 +29°C° 0 mm 3 mps 757 mmHg 53%
    18:00 +27°C° 0 mm 3 mps 757 mmHg 57%
    19:00 +25°C° 0 mm 4 mps 757 mmHg 62%
    20:00 +22°C° 0 mm 4 mps 757 mmHg 67%
    21:00 +22°C° 0 mm 4 mps 757 mmHg 68%
    22:00 +21°C° 0 mm 4 mps 757 mmHg 70%
    23:00 +20°C° 0 mm 4 mps 758 mmHg 72%

    26 Octubre, Sábado

    Tiempo Temperatura Precipitaciones Viento Presión Humedad
    00:00 +20°C° 0 mm 4 mps 757 mmHg 74%
    01:00 +19°C° 0 mm 4 mps 757 mmHg 76%
    02:00 +18°C° 0 mm 3 mps 756 mmHg 78%
    03:00 +18°C° 0 mm 4 mps 756 mmHg 78%
    04:00 +17°C° 0 mm 4 mps 756 mmHg 78%
    05:00 +17°C° 0 mm 4 mps 755 mmHg 77%
    06:00 +19°C° 0 mm 4 mps 755 mmHg 70%
    07:00 +20°C° 0 mm 5 mps 755 mmHg 62%
    08:00 +22°C° 0 mm 5 mps 755 mmHg 54%
    09:00 +24°C° 0 mm 6 mps 755 mmHg 49%
    10:00 +27°C° 0 mm 6 mps 754 mmHg 44%
    11:00 +28°C° 0 mm 6 mps 753 mmHg 39%
    12:00 +29°C° 0 mm 6 mps 752 mmHg 37%
    13:00 +30°C° 0 mm 6 mps 752 mmHg 36%
    14:00 +32°C° 0 mm 6 mps 751 mmHg 34%
    15:00 +30°C° 0.1 mm 6 mps 750 mmHg 39%
    16:00 +30°C° 0.1 mm 5 mps 749 mmHg 43%
    17:00 +29°C° 0.1 mm 4 mps 748 mmHg 48%
    18:00 +27°C° 0 mm 4 mps 748 mmHg 53%
    19:00 +26°C° 0 mm 3 mps 748 mmHg 58%
    20:00 +24°C° 0 mm 3 mps 748 mmHg 63%
    21:00 +24°C° 0 mm 3 mps 748 mmHg 68%
    22:00 +22°C° 0 mm 3 mps 748 mmHg 72%
    23:00 +22°C° 0 mm 4 mps 747 mmHg 77%

    27 Octubre, Domingo

    Tiempo Temperatura Precipitaciones Viento Presión Humedad
    00:00 +22°C° 0.2 mm 3 mps 748 mmHg 81%
    01:00 +21°C° 0.2 mm 3 mps 748 mmHg 85%
    02:00 +21°C° 0.2 mm 3 mps 748 mmHg 89%
    03:00 +21°C° 0.5 mm 3 mps 748 mmHg 91%
    04:00 +20°C° 0.5 mm 4 mps 749 mmHg 93%
    05:00 +20°C° 0.5 mm 4 mps 750 mmHg 96%
    06:00 +21°C° 0.4 mm 5 mps 751 mmHg 92%
    07:00 +22°C° 0.4 mm 5 mps 751 mmHg 89%
    08:00 +22°C° 0.4 mm 6 mps 752 mmHg 86%
    09:00 +23°C° 0.1 mm 6 mps 753 mmHg 83%
    10:00 +23°C° 0.1 mm 6 mps 753 mmHg 79%
    11:00 +23°C° 0.1 mm 7 mps 753 mmHg 76%
    12:00 +23°C° 0.1 mm 6 mps 753 mmHg 74%
    13:00 +22°C° 0.1 mm 6 mps 753 mmHg 72%
    14:00 +22°C° 0.1 mm 6 mps 753 mmHg 70%
    15:00 +22°C° 0 mm 5 mps 753 mmHg 69%
    16:00 +23°C° 0 mm 5 mps 753 mmHg 68%
    17:00 +23°C° 0 mm 4 mps 753 mmHg 68%
    18:00 +22°C° 0 mm 4 mps 753 mmHg 70%
    19:00 +21°C° 0 mm 4 mps 753 mmHg 73%
    20:00 +21°C° 0 mm 4 mps 753 mmHg 75%
    21:00 +20°C° 0 mm 4 mps 753 mmHg 73%
    22:00 +19°C° 0 mm 4 mps 754 mmHg 70%
    23:00 +18°C° 0 mm 4 mps 754 mmHg 67%

    28 Octubre, Lunes

    Tiempo Temperatura Precipitaciones Viento Presión Humedad
    00:00 +17°C° 0 mm 4 mps 754 mmHg 70%
    01:00 +17°C° 0 mm 4 mps 754 mmHg 72%
    02:00 +16°C° 0 mm 3 mps 754 mmHg 74%
    03:00 +15°C° 0 mm 4 mps 754 mmHg 72%
    04:00 +15°C° 0 mm 4 mps 754 mmHg 71%
    05:00 +15°C° 0 mm 4 mps 754 mmHg 69%
    06:00 +15°C° 0 mm 4 mps 754 mmHg 70%
    07:00 +16°C° 0 mm 5 mps 754 mmHg 72%
    08:00 +17°C° 0 mm 5 mps 754 mmHg 74%
    09:00 +20°C° 0 mm 5 mps 754 mmHg 70%
    10:00 +22°C° 0 mm 5 mps 753 mmHg 67%
    11:00 +26°C° 0 mm 5 mps 753 mmHg 63%
    12:00 +26°C° 0 mm 4 mps 752 mmHg 64%
    13:00 +26°C° 0 mm 4 mps 751 mmHg 65%
    14:00 +26°C° 0 mm 4 mps 750 mmHg 66%
    15:00 +26°C° 0 mm 4 mps 749 mmHg 70%
    16:00 +25°C° 0 mm 4 mps 749 mmHg 74%
    17:00 +24°C° 0 mm 3 mps 748 mmHg 77%
    18:00 +24°C° 0 mm 3 mps 748 mmHg 81%
    19:00 +23°C° 0 mm 2 mps 748 mmHg 85%
    20:00 +21°C° 0 mm 2 mps 748 mmHg 88%
    21:00 +21°C° 0.4 mm 2 mps 748 mmHg 90%
    22:00 +21°C° 0.4 mm 2 mps 748 mmHg 92%
    23:00 +21°C° 0.4 mm 2 mps 749 mmHg 93%

    29 Octubre, Martes

    Tiempo Temperatura Precipitaciones Viento Presión Humedad
    00:00 +20°C° 0.4 mm 2 mps 749 mmHg 94%
    01:00 +20°C° 0.4 mm 2 mps 749 mmHg 95%
    02:00 +19°C° 0.4 mm 2 mps 749 mmHg 97%
    03:00 +19°C° 0 mm 4 mps 750 mmHg 95%
    04:00 +19°C° 0 mm 5 mps 750 mmHg 94%
    05:00 +17°C° 0 mm 6 mps 751 mmHg 92%
    06:00 +19°C° 0 mm 6 mps 752 mmHg 86%
    07:00 +19°C° 0 mm 6 mps 753 mmHg 80%
    08:00 +19°C° 0 mm 6 mps 754 mmHg 74%
    09:00 +21°C° 0 mm 6 mps 754 mmHg 64%
    10:00 +22°C° 0 mm 6 mps 755 mmHg 55%
    11:00 +25°C° 0 mm 5 mps 755 mmHg 45%
    12:00 +25°C° 0 mm 5 mps 755 mmHg 43%
    13:00 +26°C° 0 mm 5 mps 755 mmHg 41%
    14:00 +27°C° 0 mm 4 mps 755 mmHg 38%
    15:00 +26°C° 0 mm 4 mps 755 mmHg 41%
    16:00 +26°C° 0 mm 3 mps 755 mmHg 44%
    17:00 +26°C° 0 mm 3 mps 755 mmHg 47%
    18:00 +22°C° 0 mm 3 mps 755 mmHg 53%
    19:00 +20°C° 0 mm 3 mps 755 mmHg 59%
    20:00 +18°C° 0 mm 3 mps 756 mmHg 66%
    21:00 +18°C° 0 mm 3 mps 756 mmHg 68%
    22:00 +17°C° 0 mm 4 mps 757 mmHg 71%
    23:00 +15°C° 0 mm 4 mps 757 mmHg 74%
    Mostrar más